Starlink 31395

operational
NORAD ID: 59180 Int'l Des: 2024-045 Owner: SPXS Country: US Constellation: starlink
LEOCIRCULAR

关于 Starlink 31395

正在加载描述...

实时位置

正在加载3D地球...

即将过境

高度历史

Altitude vs Time

uPlot chart will show altitude changes over time

两行轨道根数

1 59180U 24045C 25296.29430195 .00001214 00000-0 53651-4 0 9997
2 59180 43.0010 148.9050 0001289 262.7633 97.3072 15.27578240 92144
Epoch: Oct 23, 2025 • Age: 34 hours

当前状态

高度 483.4 km
速度 7.63 km/s
星下点 -4.92°S, 161.19°W
发射日期 Mar 11, 2024
运行时间 1.6 years
类型 internet

技术详情

分类 Payload
质量 730.00 kg
干质量 700.00 kg
总质量 730.00 kg
长度 0.30 m
直径 4.10 m
跨度 29.00 m
形状 Box + pan
制造商 SPXS
平台类型 Starlink V2M
阶段状态 In Orbit
所有者/国家 SPXS/US

大型星座

Loading constellations...